Regional Weather Roundup
Issued by NWS

Home | Current Version | Previous Version | Graphics & Text | Print | Product List | Glossary On
Versions: 1 2 3 4 5 6 7 8 9 10 11 12 13 14 15 16 17 18 19 20 21 22 23 24 25 26 27
000
ASUS45 KCYS 240410
RWRWY

WYOMING REGIONAL WEATHER ROUNDUP
NATIONAL WEATHER SERVICE CHEYENNE WY
1000 PM MDT SUN JUL 23 2017

NOTE:  "FAIR" INDICATES FEW OR NO CLOUDS BELOW 12,000 FEET
WITH NO SIGNIFICANT WEATHER AND/OR OBSTRUCTIONS TO VISIBILITY.

WYZ001-240500-
YELLOWSTONE NATIONAL PARK

CITY           SKY/WX    TMP DP  RH WIND       PRES   REMARKS
LK YELLOWSTONE   N/A     53  41  63 CALM      30.29R
W YELLOWSTONE  NOT AVBL

$$
WYZ002>013-054>058-071-098>099-240500-
NORTHERN WYOMING

CITY           SKY/WX    TMP DP  RH WIND       PRES   REMARKS
JACKSON        FAIR      66  43  42 SE3       30.17R
CODY           FAIR      73  44  35 CALM      30.04R
GREYBULL       FAIR      84  32  15 NW7       29.90R
WORLAND        FAIR      76  38  25 NE5       29.92R
SHERIDAN       FAIR      72  48  42 S3        29.93R
BUFFALO        FAIR      79  39  23 NW13      30.01R
GILLETTE       FAIR      83  43  24 SE13      29.95R
HULETT         FAIR      79  45  29 SE7       29.98S
NEWCASTLE      FAIR      81  45  28 E16       29.98S

$$
WYZ014>020-022>026-101>103-240500-
CENTRAL WYOMING

CITY           SKY/WX    TMP DP  RH WIND       PRES   REMARKS
BIG PINEY      FAIR      63  39  41 NW9       30.23R
PINEDALE       FAIR      61  43  51 NW5       30.24R
DUBOIS         FAIR      64  32  29 NW7       30.22R
LANDER         FAIR      75  30  19 SW12      30.08R
RIVERTON       FAIR      76  28  17 W13       30.05R
CASPER         FAIR      70  41  34 NW8       30.01R
DOUGLAS        FAIR      77  47  34 SE10      30.01S

$$
WYZ021-027>030-104>119-240500-
SOUTHERN WYOMING

CITY           SKY/WX    TMP DP  RH WIND       PRES   REMARKS
EVANSTON       FAIR      66  41  40 SW12      30.24R
KEMMERER         N/A     70  32  24 NW5       30.26R
FORT BRIDGER   FAIR      67  35  30 W7        30.25S
ROCK SPRINGS   FAIR      73  29  19 SW10      30.19R
RAWLINS        FAIR      73  22  14 NW9       30.16R
SARATOGA       FAIR      66  36  32 S9        30.20R
LARAMIE        FAIR      67  47  48 SE13      30.23R
CHEYENNE       FAIR      73  44  35 SE16      30.17R
TORRINGTON     FAIR      77  49  37 SE9       30.00R
PINE BLUFFS    FAIR      77  43  29 SE14G20   30.12R

$$




USA.gov is the U.S. government's official web portal to all federal, state and local government web resources and services.